Showing default

QIANFAN-194, 69412

Orbit data source: Space-Track

QIANFAN-194, 69412 is a Chinese payload satellite in LEO that was launched on Fri, 05 Jun 2026 UTC via a CHANG ZHENG 8 launch vehicle from the Wenchang Satellite Launch Center (WSC). Payload-class satellites include a variety of spacecraft equipped with specific instruments for various scientific and technological missions. These include communications satellites like Starlink; space stations such as the ISS; scientific satellites like the Hubble; Earth observation satellites from companies like Planet Labs, Umbra, and HawkEye 360; GPS; miniature CubeSats for education and research; and military/defense satellites.

Loading next visibility...
Identifier
69412, 2026-125M
Orbit
LEO
Country
Flag of CNCN / PRC
Related business
Manufacturer
SECM?
Mission
Operational spacecraft
Bus & Motor
QIANFAN, Unknown motor
Mass
267 kg wet, ~267 kg dry
Launch date (UTC)
2026-06-05 (2 weeks ago)
Launch vehicle
CHANG ZHENG 8
Launch site
Wenchang Satellite Launch Center (WSC)
Object type
Payload
Rocket body
Debris
Shape & HBR
Unknown
Radar Cross Section
Large (>1 m²)

Expand to show TLE details & history
Last TLE update: 1 day ago

TLE from 1 day ago
0 QIANFAN-194
1 69412U 26125M   26170.77817540 -.01787424  00000-0 -96675+0 0  9990
2 69412  88.9947 280.1486 0012364 186.3713 173.7320 14.16835506  2063
Epoch: 2026-06-19T18:40Z
TLE epoch observation values (Epoch: 2026-06-19T18:40:34.354Z)
Latitude
-0.00004°
Longitude
92.00319°
Altitude
847.992 km
Speed
7.424 km/s
True Right ascension
18h 40m 35s
True Declination
0° 00' 00"
Sunlit
Object was in full shadow at epoch
Visualization orbit readout
Latitude
Unknown
Longitude
Unknown
Altitude
Unknown
Speed
Unknown
Apparent Right ascension
Unknown
Apparent Declination
Unknown
Sunlit
N/A
Visualization observer readout
Local Sidereal Time
07:11:56
Azimuth
Unknown
Elevation
Unknown
Doppler factor
Unknown
Orbital elements
Apogee altitude
841.946 km
Perigee altitude
824.115 km
Semi-major axis
7,211.168 km
Eccentricity
0.00124
Inclination
88.9947°
RAAN
280.1486°
Arg. of periapsis
186.3713°
True anomaly
173.74744°
Mean anomaly
173.732°
Eccentric anomaly
173.73972°
Mean motion
3.54434 °/min
Orbital period
101.57 mins
BSTAR
-0.96675
Loading maneuver chart data...
Computing Atmospheric mass density...
Loading historical data...
Loading historical data...
Loading historical data...
Loading historical data...
Loading historical data...
Loading historical data...
Loading historical data...

Documentation

Showing up to 5 results
|